Regional Weather Roundup
Issued by NWS

Home | Current Version | Previous Version | Text Only | Print | Product List | Glossary On
Versions: 1 2 3 4 5 6 7 8 9 10 11 12 13 14 15 16 17 18 19 20 21 22 23 24 25 26 27 28 29 30 31 32 33 34 35 36 37 38 39 40 41 42 43 44 45 46 47 48 49 50
140
ASUS44 KJAN 231110
RWRMS

MISSISSIPPI HOURLY WEATHER ROUNDUP
NATIONAL WEATHER SERVICE JACKSON MS
600 AM CDT SAT SEP 23 2017

NOTE: "FAIR: INDICATES FEW OR NO CLOUDS BELOW 12,000 FEET WITH NO
SIGNIFICANT WEATHER AND/OR OBSTRUCTIONS TO VISIBILITY.

MSZ001>002-007>008-010>013-018>021-025>028-034>036-231200-
NORTHWEST MISSISSIPPI

CITY           SKY/WX    TMP DP  RH WIND       PRES   REMARKS
BATESVILLE     PTSUNNY   66  65  96 CALM      30.00R FOG
CLARKSDALE       N/A     70  70 100 CALM      29.98R
CLEVELAND      FAIR      69  69 100 N3        29.97R
GREENWOOD      CLEAR     71  69  93 NE5       29.97R
GREENVILLE     CLEAR     69  68  96 CALM      29.96R
OXFORD         FAIR      68  66  94 CALM      30.01R
TUNICA           N/A     66  66 100 CALM      30.00R FOG
WINONA         FAIR      67  67 100 CALM      29.97S FOG
$$

MSZ003>006-009-014>017-022>024-029>033-037>039-231200-
NORTHEAST MISSISSIPPI

CITY           SKY/WX    TMP DP  RH WIND       PRES   REMARKS
COLUMBUS AFB   CLEAR     69  69 100 CALM      29.98R
GOLDN TRIANGLE CLEAR     70  68  94 CALM      29.99  FOG
STARKVILLE       N/A     68  68 100 CALM      30.00R FOG
TUPELO         CLEAR     70  67  90 N6        29.99R
$$

MSZ040-058-231200-
CENTRAL MISSISSIPPI

CITY           SKY/WX    TMP DP  RH WIND       PRES   REMARKS
JACKSON INTL   CLEAR     69  68  96 CALM      29.97R
JACKSON HAWKNS CLEAR     70  70 100 CALM      29.97R FOG
MADISON          N/A     68  68 100 CALM      29.97R VSB 1
MERIDIAN KEY   CLEAR     68  67  96 CALM      29.98R
MERIDIAN NAS   CLEAR     68  67  96 CALM      29.99R
RAYMOND        FOG       68  68 100 CALM      29.96R VSB 1
VICKSBURG VKS  SUNNY     68  68 100 CALM      29.97R FOG
$$

MSZ059>079-231200-
SOUTH MISSISSIPPI

CITY           SKY/WX    TMP DP  RH WIND       PRES   REMARKS
COLUMBIA       FAIR      66 N/A N/A CALM      30.00S HAZE
HATTIESBURG    NOT AVBL
LAUREL         FAIR      67  67 100 CALM      29.97S
MCCOMB         NOT AVBL
NATCHEZ        CLEAR     70  69  97 CALM      29.96R
PINE BELT      CLEAR     67  66  97 CALM      29.98R FOG
$$

MSZ080>082-231200-
COASTAL MISSISSIPPI

CITY           SKY/WX    TMP DP  RH WIND       PRES   REMARKS
BILOXI         CLEAR     71  68  90 NE5       29.93R
PASCAGOULA     NOT AVBL
GULFPORT       NOT AVBL
$$

LAZ007>009-015>016-023>026-231200-
NORTHEAST LOUISIANA

CITY           SKY/WX    TMP DP  RH WIND       PRES   REMARKS
BASTROP        FAIR      69  68  98 CALM      29.97S FOG
TALLULAH/VBURG CLEAR     68  68 100 CALM      29.95S FOG
VIDALIA          N/A    N/A N/A N/A MISG      29.94R
$$




USA.gov is the U.S. government's official web portal to all federal, state and local government web resources and services.